TimeEDT,TemperatureF,Dew PointF,Humidity,Sea Level PressureIn,VisibilityMPH,Wind Direction,Wind SpeedMPH,Gust SpeedMPH,PrecipitationIn,Events,Conditions,WindDirDegrees,DateUTC
12:56 AM,45.0,37.9,76,30.02,-9999.0,NNW,5.8,-,N/A,,Unknown,340,2013-05-09 04:56:00
1:56 AM,45.0,36.0,71,30.03,-9999.0,NNE,6.9,-,N/A,,Unknown,20,2013-05-09 05:56:00
2:56 AM,45.0,36.0,71,30.01,-9999.0,North,5.8,-,N/A,,Unknown,10,2013-05-09 06:56:00
3:56 AM,42.1,37.0,82,30.00,-9999.0,North,4.6,-,N/A,,Unknown,360,2013-05-09 07:56:00
4:56 AM,43.0,37.0,80,30.00,-9999.0,Calm,Calm,-,N/A,,Unknown,0,2013-05-09 08:56:00
5:56 AM,44.1,37.0,76,30.01,-9999.0,NW,6.9,-,N/A,,Unknown,320,2013-05-09 09:56:00
6:56 AM,42.1,37.0,82,30.03,-9999.0,NNW,11.5,-,N/A,,Unknown,330,2013-05-09 10:56:00
7:56 AM,42.1,37.0,82,30.05,-9999.0,NNW,6.9,-,N/A,,Unknown,330,2013-05-09 11:56:00
8:56 AM,41.0,36.0,82,30.07,-9999.0,NNW,13.8,-,N/A,,Unknown,330,2013-05-09 12:56:00
9:56 AM,42.1,35.1,76,30.09,-9999.0,NNE,18.4,-,N/A,,Unknown,20,2013-05-09 13:56:00
10:56 AM,41.0,34.0,76,30.11,-9999.0,North,20.7,-,N/A,,Unknown,360,2013-05-09 14:56:00
11:56 AM,41.0,34.0,76,30.12,-9999.0,North,-9999.0,-,N/A,,Unknown,0,2013-05-09 15:56:00
12:56 PM,39.9,33.1,77,30.13,-9999.0,North,20.7,-,N/A,,Unknown,360,2013-05-09 16:56:00
1:56 PM,39.0,32.0,76,30.14,-9999.0,North,23.0,-,N/A,,Unknown,10,2013-05-09 17:56:00
2:56 PM,39.0,32.0,76,30.15,-9999.0,North,20.7,-,N/A,,Unknown,10,2013-05-09 18:56:00
3:56 PM,39.0,32.0,76,30.15,-9999.0,NNE,24.2,31.1,N/A,,Unknown,30,2013-05-09 19:56:00
4:56 PM,37.9,32.0,79,30.15,-9999.0,North,24.2,-,N/A,,Unknown,360,2013-05-09 20:56:00
5:56 PM,37.9,32.0,79,30.15,-9999.0,North,21.9,28.8,N/A,,Unknown,10,2013-05-09 21:56:00
6:56 PM,37.9,32.0,79,30.15,-9999.0,North,23.0,-,N/A,,Unknown,360,2013-05-09 22:56:00
7:56 PM,39.0,32.0,76,30.14,-9999.0,North,21.9,-,N/A,,Unknown,360,2013-05-09 23:56:00
8:56 PM,39.0,32.0,76,30.16,-9999.0,North,19.6,-,N/A,,Unknown,10,2013-05-10 00:56:00
9:56 PM,37.9,30.9,76,30.15,-9999.0,NNE,20.7,29.9,N/A,,Unknown,20,2013-05-10 01:56:00
10:56 PM,39.0,32.0,76,30.17,-9999.0,NNE,17.3,-,N/A,,Unknown,30,2013-05-10 02:56:00
11:56 PM,37.9,30.9,76,30.17,-9999.0,NNE,18.4,-,N/A,,Unknown,20,2013-05-10 03:56:00